Vertical_Velocity
-3 -2 1 2 1 -1 -1 0 -1 0 3 4 -1 -1 -6 -4 1 3 3 0 -1 0 1 1 -1 -6 5 -5 -8 3 -6 -3 -0 -2 -0 2 1 -3 -2 -1 -1 -1 1 -1
-1 -2 0 1 2 -1 -1 -1 0 -1 0 2 -0 -2 -1 -2 -0 -2 0 0 1 1 0 0 0 -0 -2 -3 -1 -2 -3 1 -4 0 -1 -1 -1 -2 -3 -0 -1 -1 -3 -2
0 -1 -0 -2 0 1 -0 -0 0 -2 -1 1 1 -1 -1 -1 -1 -2 -3 -2 2 1 0 1 -1 1 1 -0 0 -1 2 -1 -1 -9 -2 -1 -5 -4 -0 -0 -0 -1 -1 -1
-1 2 -2 -1 -1 0 -1 -0 -0 0 0 -2 -1 0 -1 0 -2 -1 -1 -3 -3 -3 1 -0 1 1 0 2 1 1 -0 -0 0 0 1 1 0 0 -0 -3 0 -1 -3 -1
1 1 -1 -2 -0 -1 -1 -1 -0 -1 0 1 1 -0 1 0 1 2 -2 -2 -0 -2 -2 1 -1 -0 -2 -1 -0 -1 1 -1 -1 -1 -1 -1 -1 -1 0 -0 1 0 1 -1
0 -0 -1 0 0 -0 -1 -1 -0 -1 1 -1 -1 -0 1 1 1 -1 -2 -0 -1 -1 -1 -1 -1 0 -0 1 0 -1 -2 -1 -1 0 0 1 -3 -1 -1 1 2 6 -6 5
-1 1 -1 -1 1 1 -1 0 -1 -1 0 -0 -1 0 0 1 1 1 2 0 -0 0 -0 0 -1 0 0 -2 -1 -0 1 1 1 -0 -1 -5 -2 -2 -1 -0 0 -0 -1 -4
0 -0 -0 -2 0 1 0 -0 -0 -2 -1 1 -1 1 1 -0 0 1 2 2 0 0 -1 -0 -0 -1 0 1 0 0 -0 -0 -1 -1 -3 -3 0 -2 -2 -0 1 -2 -2 -3
1 1 -1 -1 -1 -1 1 1 -0 -0 -3 -2 0 -0 1 0 0 1 -0 1 1 0 0 1 0 0 0 -0 -0 1 -0 -1 -0 -2 -1 -2 -2 -2 -1 -1 -6 -1 -2 -1
0 -1 -0 -0 -1 -1 -2 0 0 0 0 -2 -2 -1 -1 -0 1 0 1 1 1 2 1 -0 -1 -0 -1 -1 -1 -1 1 0 -1 1 -1 -2 -0 0 0 0 0 2 3 1
0 1 -1 -1 -0 0 -1 -1 -0 0 1 -1 -2 -1 0 -1 -0 1 -1 -1 -0 0 -0 0 -0 -0 -0 -1 -1 -2 -2 -2 -2 0 -2 -4 -1 0 -1 -0 1 0 1 1
0 1 1 -1 -1 -1 1 -2 -0 -1 -1 0 0 -1 -1 1 -1 -1 1 0 -1 -1 -0 -1 -1 -0 0 1 -1 -0 -4 -4 -4 -6 -4 -3 -1 -1 -2 -1 -2 -0 2 1
2 -0 0 0 0 1 -0 3 -1 -1 -1 -1 -0 -1 -1 -1 -1 -0 0 1 1 -0 1 1 -1 -1 -1 -1 -2 -1 -3 1 -3 1 -2 1 0 -1 -1 -1 -0 -1 -2 -3
2 0 0 0 1 1 1 1 3 0 0 -2 0 -0 -1 -1 -0 -0 -1 0 -0 -0 1 0 1 1 0 -2 -2 -1 2 1 -0 -4 -1 -1 -0 3 1 2 3 3 2 2
-0 1 -2 -0 1 -0 1 2 0 1 -0 -1 -1 1 0 -1 -1 -1 -0 -0 1 0 -1 -1 1 -2 2 1 0 -7 5 0 -2 -4 2 3 7 2 2 2 1 0 2 1
-1 -3 -0 0 2 0 -1 -0 2 1 2 0 -0 -0 -1 -1 -0 0 1 -0 -2 -1 1 3 -4 0 -0 -0 -8 4 3 0 3 -2 1 -1 -3 -4 -2 -3 -3 -1 -1 0
0 -0 2 -3 -1 3 3 -1 -0 1 1 2 -1 -4 -2 -0 -1 0 -0 1 -1 -0 -2 -4 0 4 -0 -7 -9 3 2 1 3 4 2 1 3 1 2 2 1 -0 -0 -0
1 -2 -0 -0 -3 4 -1 2 -0 2 1 2 -0 -4 -4 1 1 -1 1 -0 1 -3 -2 -4 -1 -1 -0 -15 2 -2 -0 1 0 -3 0 -0 2 3 3 2 2 2 1 1
3 7 3 5 -7 -2 4 2 1 1 3 1 -2 -1 -4 -2 1 1 1 2 -2 -0 -3 -2 2 -3 -12 -1 -1 -4 -1 -0 3 1 1 -0 -0 -1 0 1 2 4 4 3
7 14 -3 2 -9 6 -1 -2 -6 -3 -0 3 -3 -4 0 -4 -2 -1 2 1 -0 0 -3 1 -1 -16 1 -2 -0 1 1 -1 -2 -0 1 -0 0 1 2 2 3 1 -0 2
12 -1 1 -2 -2 3 5 -1 -1 -2 -1 -5 -3 -7 -4 3 3 2 4 1 1 1 -0 -1 0 -14 -4 -2 1 0 -1 -0 -1 0 2 2 2 2 1 1 1 2 2 1
4 5 12 10 12 7 -6 -1 -2 -3 -4 -13 -6 -1 8 5 8 8 2 0 -2 3 1 -1 -4 -2 -2 -0 1 0 -1 -0 1 2 1 0 -1 -0 2 2 3 1 -1 0
15 26 21 22 4 4 -8 -7 -1 -16 -5 -7 -4 -2 1 1 5 4 -1 1 3 1 -2 -5 -8 -4 1 3 -1 -1 1 0 0 -0 -1 -0 0 1 1 3 2 1 2 3
27 18 14 0 -10 -13 -29 -24 5 -3 -2 -0 -3 -1 1 -1 0 1 -2 3 -1 1 -1 -8 -5 -1 -1 -0 -0 1 2 2 1 0 -1 -1 1 3 2 -4 -5 -4 -2 2
21 17 4 -32 -4 -10 -2 -1 -2 5 4 -3 -3 0 6 -1 0 -4 -2 -2 -0 -1 -5 -2 -1 0 1 1 2 -2 -3 -1 1 2 2 -1 -2 -1 3 3 0 -4 -1 1
15 17 -12 -22 -1 -1 -4 -1 -0 5 4 4 5 -1 -1 -3 -1 -1 -4 -1 -6 -9 1 -0 -2 -2 -1 -2 -2 -3 -1 -2 -2 -1 -2 -4 -3 -2 -3 -2 -5 -2 -4 -4
5 -12 -11 -3 5 8 9 13 11 8 -2 -7 -2 -3 -6 -1 -3 -5 -13 -24 -1 -1 1 -0 -2 -3 -3 -4 -2 -2 -3 -4 -3 -4 -4 -3 -0 -0 -2 1 0 -4 -0 -2
Height
3092 3089 3086 3083 3082 3080 3079 3076 3074 3071 3069 3070 3066 3066 3066 3067 3068 3068 3069 3071 3072 3074 3075 3076 3076 3077 3079 3082 3083 3085 3087 3090 3092 3095 3096 3098 3100 3102 3103 3105 3107 3107 3108 3110
3092 3089 3086 3083 3082 3080 3079 3077 3075 3074 3072 3070 3069 3069 3069 3070 3070 3070 3070 3071 3073 3075 3075 3076 3076 3078 3080 3082 3085 3086 3088 3089 3093 3097 3099 3097 3098 3100 3102 3104 3104 3105 3106 3107
3091 3089 3087 3084 3082 3080 3080 3078 3077 3075 3073 3072 3071 3071 3071 3071 3071 3072 3072 3072 3073 3074 3074 3075 3076 3078 3081 3083 3085 3086 3087 3088 3089 3090 3089 3092 3094 3098 3100 3102 3103 3103 3103 3102
3090 3088 3086 3084 3082 3080 3080 3078 3076 3076 3075 3074 3073 3073 3072 3071 3071 3072 3073 3074 3074 3074 3074 3075 3076 3078 3080 3082 3084 3085 3087 3087 3088 3089 3089 3090 3092 3094 3096 3096 3099 3100 3099 3100
3088 3088 3086 3084 3082 3081 3080 3079 3077 3076 3075 3074 3074 3074 3073 3073 3072 3073 3073 3073 3074 3075 3075 3076 3076 3077 3079 3081 3083 3084 3085 3087 3087 3088 3089 3090 3090 3091 3091 3092 3094 3095 3096 3097
3085 3086 3086 3084 3082 3081 3080 3079 3077 3077 3076 3075 3074 3074 3074 3074 3073 3073 3073 3074 3074 3075 3076 3076 3077 3078 3079 3080 3082 3083 3085 3086 3087 3087 3087 3087 3087 3084 3085 3086 3088 3091 3092 3096
3083 3083 3084 3083 3082 3081 3080 3079 3078 3077 3076 3075 3075 3074 3074 3073 3073 3073 3073 3073 3074 3076 3075 3076 3077 3077 3078 3079 3080 3081 3083 3084 3085 3084 3085 3088 3080 3080 3080 3081 3082 3085 3087 3088
3080 3080 3081 3081 3081 3080 3079 3078 3078 3077 3076 3076 3075 3074 3073 3073 3073 3073 3073 3073 3074 3073 3074 3075 3075 3076 3077 3077 3077 3079 3080 3081 3082 3083 3082 3079 3076 3076 3077 3076 3078 3079 3082 3083
3076 3076 3077 3078 3079 3078 3078 3077 3077 3076 3077 3076 3075 3074 3073 3073 3073 3073 3073 3073 3072 3073 3073 3073 3073 3074 3075 3075 3075 3075 3077 3079 3082 3081 3080 3077 3075 3074 3074 3076 3075 3076 3078 3079
3072 3073 3073 3074 3075 3076 3076 3075 3075 3075 3075 3074 3074 3073 3073 3073 3073 3073 3072 3072 3072 3072 3072 3072 3072 3073 3073 3073 3072 3073 3074 3075 3077 3078 3078 3073 3072 3072 3073 3076 3078 3074 3075 3077
3067 3068 3068 3070 3071 3072 3073 3074 3073 3074 3073 3072 3072 3072 3072 3072 3071 3072 3072 3073 3071 3071 3071 3072 3071 3071 3072 3071 3071 3071 3072 3073 3073 3076 3076 3073 3070 3071 3073 3073 3073 3074 3075 3076
3060 3063 3064 3064 3066 3067 3069 3070 3071 3070 3071 3072 3070 3069 3069 3069 3069 3070 3070 3071 3071 3071 3071 3071 3071 3070 3070 3070 3069 3069 3071 3071 3071 3073 3070 3069 3069 3069 3070 3070 3071 3071 3071 3071
3054 3057 3059 3059 3061 3062 3065 3065 3066 3067 3067 3068 3067 3066 3066 3066 3066 3067 3068 3068 3068 3069 3069 3070 3070 3069 3069 3068 3067 3067 3066 3067 3066 3067 3065 3065 3065 3067 3067 3066 3066 3066 3066 3066
3047 3050 3053 3055 3056 3057 3058 3060 3062 3062 3063 3063 3065 3063 3063 3063 3063 3063 3064 3065 3065 3066 3066 3066 3066 3067 3066 3064 3064 3063 3065 3063 3062 3059 3059 3060 3061 3062 3062 3062 3061 3061 3061 3061
3040 3043 3046 3049 3050 3051 3053 3054 3056 3058 3061 3059 3059 3060 3061 3061 3061 3061 3061 3061 3061 3062 3063 3063 3063 3063 3063 3060 3057 3055 3058 3057 3056 3053 3054 3055 3056 3056 3056 3056 3055 3055 3055 3055
3032 3035 3038 3041 3044 3046 3048 3049 3051 3052 3053 3053 3053 3054 3054 3055 3056 3056 3057 3057 3058 3058 3058 3058 3057 3058 3060 3055 3049 3051 3051 3051 3050 3050 3048 3048 3049 3049 3049 3049 3049 3049 3049 3049
3026 3028 3031 3035 3037 3039 3042 3045 3046 3046 3047 3048 3047 3047 3048 3049 3050 3051 3052 3052 3052 3053 3053 3052 3052 3053 3053 3049 3044 3046 3045 3044 3043 3043 3043 3043 3042 3042 3043 3042 3042 3042 3042 3042
3020 3022 3024 3025 3029 3032 3036 3039 3040 3041 3043 3043 3042 3042 3045 3045 3046 3047 3047 3047 3047 3047 3046 3046 3046 3046 3045 3041 3040 3039 3038 3037 3037 3037 3037 3037 3037 3037 3037 3036 3036 3036 3035 3035
3014 3016 3018 3019 3020 3025 3030 3033 3034 3035 3040 3036 3033 3037 3040 3039 3040 3042 3042 3041 3041 3039 3039 3039 3040 3038 3035 3035 3034 3033 3033 3033 3031 3031 3031 3031 3031 3031 3031 3031 3031 3032 3032 3032
3006 3009 3010 3010 3013 3021 3024 3024 3027 3027 3027 3024 3025 3031 3035 3038 3037 3037 3040 3036 3035 3032 3033 3031 3027 3025 3030 3027 3026 3026 3025 3025 3025 3025 3025 3025 3025 3025 3025 3026 3027 3027 3027 3026
2994 2996 3000 3004 3009 3014 3018 3019 3017 3017 3014 3013 3017 3025 3028 3028 3030 3031 3032 3029 3029 3025 3025 3026 3016 3016 3020 3020 3018 3018 3018 3017 3017 3018 3018 3018 3019 3020 3021 3022 3022 3022 3021 3020
2986 2991 2994 2998 3002 3006 3010 3007 3005 3003 3005 3006 3010 3013 3017 3017 3021 3023 3023 3024 3024 3019 3017 3016 3008 3012 3012 3013 3011 3011 3011 3011 3011 3011 3012 3013 3014 3016 3016 3016 3016 3014 3013 3012
2976 2980 2982 2987 2990 2992 2991 2987 2986 2990 2991 2996 3004 3008 3011 3012 3017 3017 3019 3017 3014 3012 3009 3004 3005 3007 3006 3005 3005 3005 3004 3004 3005 3007 3008 3009 3010 3010 3011 3011 3009 3008 3006 3003
2967 2966 2966 2969 2969 2969 2968 2974 2981 2985 2988 2994 2998 3003 3006 3008 3011 3012 3013 3012 3010 3003 2997 2996 2999 3000 3000 3000 3000 3001 3001 3002 3003 3003 3004 3005 3006 3006 3004 3002 3001 2999 2995 2991
2953 2951 2948 2950 2955 2958 2963 2968 2973 2978 2983 2988 2992 2998 3001 3003 3005 3006 3007 3005 2999 2992 2988 2989 2991 2993 2994 2995 2996 2997 2998 3000 3000 3001 3001 3001 3000 2999 2996 2994 2990 2987 2981 2974
2939 2936 2937 2942 2949 2951 2954 2960 2965 2971 2975 2980 2985 2989 2993 2995 2997 2994 2995 2995 2989 2988 2986 2986 2987 2989 2991 2992 2993 2994 2995 2996 2997 2996 2994 2993 2992 2988 2984 2980 2977 2972 2967 2961
2923 2924 2927 2932 2939 2945 2947 2951 2957 2964 2968 2971 2975 2978 2981 2984 2985 2982 2983 2983 2985 2985 2984 2983 2983 2985 2987 2988 2989 2989 2989 2989 2988 2987 2985 2983 2980 2975 2971 2966 2964 2960 2955 2950